User: anonymous   Login
Location: Caltech
(34.1382°N, 118.1253°W)
Time: 23:09:08
(UTC-07:00)
Language:

Spot 4 Rocket - Orbit

View from above orbital plane
View from above orbital plane
View from above satellite
View from above satellite

Ground track
Ground track

The orbit data is extracted from the following two-line orbital elements,

1 25261U 98017B   17080.88719402 +.00000095 +00000-0 +50123-4 0  9995
2 25261 098.5371 029.2722 0003493 010.1760 349.9495 14.33563639992252
Epoch (UTC): 21 March 2017 21:17:33
Eccentricity: 0.0003493
inclination: 98.5371°
perigee height: 777 km
apogee height: 782 km
right ascension of ascending node: 29.2722°
argument of perigee: 10.1760°
revolutions per day: 14.33563639
mean anomaly at epoch: 349.9495°
orbit number at epoch: 99225

The dashed part of the orbit path shows where the satellite is in the earth's shadow,  

DLR